www.pogodaiklimat.ru

Погода и климат >> Архив погоды >> Ирак >> Diwaniya


ПОГОДА в Diwaniya

  • Прогноз погоды в Diwaniya
  • Монитор погоды в Diwaniya
  • Климат города

АРХИВ ПОГОДЫ в Diwaniya

Время (UTC), дата Ветер
(напр.,м/с)
 
Видим.   Явления Облачность Т
(С)
Тd
(С)
f
(%)
Тe
(С)
Тes
(С)
Комфортность P
(гПа)
Po
(гПа)
Тmin
(С)
Tmax
(С)
R
(мм)
R24
(мм)
S
(см)
06 20.05 штиль 0 10 км ясно +32.4 +9.9 25 +32 +49 жарко 1010.9 1011.0 +24.4
09 20.05 штиль 0 10 км 3/0
[Ci fib]
+38.5 +6.6 14 +36 +63 опасность
солнечного
удара
1010.4 1010.0
12 20.05 С 2 10 км ясно +40.0 +4.3 11 +37 +49 очень
жарко
1009.0 1009.0
15 20.05 штиль 0 10 км ясно +38.8 +12.0 20 +38 +39 очень
жарко
1008.1 1008.0
18 20.05 С 2 10 км ясно +34.2 +12.1 26 +34 +34 очень
жарко
1008.7 1009.0 +40.5
21 20.05 штиль 0 10 км ясно +29.6 +18.8 52 +35 +35 очень
душно
1009.0 1009.0
00 21.05 СЗ 2 10 км ясно +28.4 +18.8 56 +34 +34 очень
душно
1008.6 1009.0
03 21.05 штиль 0 10 км ясно +26.3 +13.6 45 +28 +29 жарко 1009.6 1010.0
06 21.05 З 2 10 км 3/0
[Ci fib]
+34.0 +12.3 27 +34 +46 очень
жарко
1010.8 1011.0 +26.0
09 21.05 штиль 0 10 км 5/0
[Ci fib]
+40.0 +9.5 16 +38 +64 опасность
солнечного
удара
1010.3 1010.0
12 21.05 С 2 10 км 3/0
[Ci sp]
+42.0 +10.5 15 +40 +52 опасность
солнечного
удара
1008.6 1009.0
15 21.05 ЮВ 2 10 км 3/0
[]
+40.8 +14.2 21 +41 +42 опасность
перегрева
1007.3 1007.0
18 21.05 Ю 2 10 км ясно +37.0 +14.7 27 +38 +38 душно 1007.6 1008.0 +43.0
21 21.05 Ю 3 10 км ясно +33.3 +10.4 25 +33 +33 жарко 1007.1 1007.0
00 22.05 ЮЗ 2 10 км 5/5 1050 м
[Cu med, cong]
+30.2 +10.7 30 +30 +30 жарко 1007.8 1008.0
03 22.05 Ю 3 10 км 10/8 600 м
[St Ac trans Ci sp]
+31.4 +8.1 23 +30 +30 жарко 1009.0 1009.0
06 22.05 СЗ 2 10 км 5/1
[Cu hum Ci sp]
+35.0 +12.7 26 +35 +45 очень
жарко
1010.8 1011.0 +29.5
09 22.05 СЗ 2 10 км 6/6 1050 м
[Cu Sc]
+39.6 +7.0 14 +37 +46 очень
жарко
1009.4 1009.0
12 22.05 СЗ 2 10 км 5/1
[Cu hum Ci sp]
+40.4 +8.4 15 +38 +49 очень
жарко
1009.2 1009.0
15 22.05 С 2 10 км 3/0
[Ci sp]
+39.6 +8.3 15 1009.0 1008.8
18 22.05 штиль 0 10 км ясно +35.0 +8.9 20 +41 +41 опасность
перегрева
1009.2 1009.0 +41.8
21 22.05 штиль 0 10 км ясно +31.2 +10.3 28 +31 +31 жарко 1010.4 1010.0
00 23.05 штиль 0 10 км ясно +29.6 +12.5 35 +31 +31 жарко 1010.5 1011.0
03 23.05 штиль 0 10 км 3/0
[Ci fib]
+28.2 +11.3 35 +29 +30 жарко 1010.6 1011.0
06 23.05 СЗ 2 8000 м пыль 4/0
[Ci fib]
+33.4 +13.4 30 +34 +46 очень
жарко
1010.6 1011.0 +27.8
09 23.05 СЗ 2 10 км 4/0
[Ci fib]
+38.6 +9.4 17 +37 +57 опасность
солнечного
удара
1011.1 1011.0
15 23.05 СЗ 2 10 км 8/0
[Ac trans Cs]
+38.4 +6.6 14 +36 +36 очень
жарко
1008.1 1008.0
18 23.05 штиль 0 10 км ясно +35.6 +12.2 24 +35 +35 очень
жарко
1007.6 1008.0 +41.0
21 23.05 штиль 0 10 км 3/0
[Ac trans]
+33.4 +11.6 27 +33 +33 жарко 1006.3 1006.0
00 24.05 В 2 10 км 9/0
[Cs]
+30.2 +11.9 32 +31 +31 жарко 1005.6 1006.0
03 24.05 ЮВ 2 10 км 8/0
[Cs]
+28.8 +12.0 35 +30 +30 жарко 1005.4 1005.0
06 24.05 Ю 3 10 км 10/0
[As trans]
+33.6 +9.2 22 +32 +37 жарко 1005.2 1005.0 +28.5
09 24.05 Ю 2 8000 м пыль 8/0
[Cs]
+37.6 +10.1 19 +36 +54 опасность
солнечного
удара
1004.6 1005.0
12 24.05 Ю 2 8000 м пыль 8/0
[Cs]
+40.4 +9.6 16 +39 +49 очень
жарко
1001.9 1002.0
15 24.05 С 1 10 км 8/0
[Cs]
+38.8 +6.9 14 +36 +37 очень
жарко
1011.1 1011.0
18 24.05 штиль 0 10 км 8/0
[Cs]
+34.8 +12.1 25 +35 +35 очень
жарко
1002.8 1003.0 +41.0
21 24.05 штиль 0 10 км ясно +31.2 +12.0 31 +32 +32 жарко 1002.9 1003.0
00 25.05 С 2 10 км ясно +29.6 +9.2 28 +29 +29 жарко 1003.5 1004.0
03 25.05 штиль 0 10 км ясно +28.0 +12.7 39 +29 +31 жарко 1003.9 1004.0
06 25.05 СЗ 2 10 км ясно +32.6 +11.0 27 +32 +45 жарко 1005.0 1005.0 +27.0
09 25.05 З 3 10 км ясно +36.8 +8.2 17 +35 +53 опасность
солнечного
удара
1004.9 1005.0
12 25.05 З 2 10 км 1/0
[Ci fib]
+38.7 +5.6 13 +36 +48 очень
жарко
1004.2 1004.0
15 25.05 З 2 10 км 8/0
[Cs]
+38.2 +9.0 17 +36 +37 очень
жарко
1004.1 1004.0
21 25.05 штиль 0 10 км 5/0
[Ci fib]
+30.0 +19.3 53 +36 +36 очень
душно
1005.9 1006.0
00 26.05 штиль 0 10 км 8/0
[Cs]
+28.0 +18.3 56 +33 +33 очень
душно
1006.3 1006.0
03 26.05 штиль 0 10 км ясно +27.0 +16.5 53 +31 +32 душно 1007.4 1007.0
09 26.05 штиль 0 10 км ясно +34.0 +11.3 25 +34 +63 опасность
солнечного
удара
1009.0 1009.0 +26.0
12 26.05 штиль 0 10 км 1/1 1050 м
[Cu hum]
+40.4 +15.7 24 +42 +57 опасность
перегрева
1007.3 1007.0
15 26.05 штиль 0 10 км ясно +39.8 +11.4 18 +39 +40 очень
жарко
1007.2 1007.0
18 26.05 штиль 0 10 км ясно +35.6 +11.4 23 +35 +35 очень
жарко
1007.9 1008.0 +41.5
21 26.05 штиль 0 10 км ясно +32.8 +10.8 26 +32 +32 жарко 1007.6 1008.0
00 27.05 З 2 10 км ясно +31.0 +11.5 30 +31 +31 жарко 1007.7 1008.0

 

Местоположение метеостанции Diwaniya (Ирак): широта 31.98 долгота 44.98 высота над уровнем моря 20 м.

В архиве по умолчанию представлена погода в Diwaniya за последнюю неделю. Архивные данные за месяц целиком и за предыдущие месяцы, начиная с января 2011 года, Вы можете получить, выбрав интересующий диапазон дат из раскрывающегося списка и нажав кнопку "Ввод!".


*Определитесь, кто Вы:
робот инопланетянин человек

Внимание! Время в таблицах - всемирное. Для получения местного времени необходимо прибавить поправку, которая в Diwaniya равна 3 ч.

Смотрите также архив погоды в соседних городах и на ближайших метеорологических станциях:

Погода в Najaf (Ирак) (62 км)
Погода в Hella (Ирак) (72 км)
Погода в Samawah (Ирак) (80 км)
Погода в Ubaydah Bin Al Jarrah (Ирак) (92 км)
Погода в Kut-Al-Hai (Ирак) (103 км)
Погода в Azizyah (Ирак) (105 км)
Погода в Rifai (Ирак) (110 км)
Погода в Karbalaa (Ирак) (115 км)
Погода в Badrah (Ирак) (154 км)
Погода в Nasiriya (Ирак) (155 км)

Пояснения к столбцам:

Ветер - указаны скорость ветра в м/с - средняя за 10 мин, порывы в срок и между сроками (в фигурных скобках) и направление, откуда дует ветер: С - северный, СВ - северо-восточный, В - восточный, ЮВ - юго-восточный, Ю - южный, ЮЗ - юго-западный, З - западный, СЗ - северо-западный.
Видимость - горизонтальная дальность видимости в метрах или километрах. При видимости от 1 до 10 км при отсутствии осадков обычно наблюдается дымка, при ухудшении видимости до 1 км и менее - туман. В сухую погоду видимость может ухудшаться дымом, пылью или мглою.
Явления - указаны атмосферные явления, наблюдавшиеся в срок или в последний час перед сроком; фигурными скобками обозначены явления, наблюдавшиеся между сроками (за 1-3 часа до срока); квадратными скобками обозначены град или гололедные отложения с указанием их диаметра в мм.
Облачность - указаны через наклонную черту общая и нижняя облачность в баллах и высота нижней границы облаков в метрах; квадратными скобками обозначены формы облаков: Ci - перистые, Cs - перисто-слоистые, Cc - перисто-кучевые, Ac - высококучевые, As - высокослоистые, Sc - слоисто-кучевые, Ns - слоисто-дождевые, Cu - кучевые, Cb - кучево-дождевые. Подробнее классификацию облаков см. в Атласе облаков (PDF).
T - Температура воздуха - температура, измеренная на высоте 2 м над землей.
Td - Температура точки росы - температура, при понижении до которой содержащийся в воздухе водяной пар достигнет насыщения.
f - Относительная влажность воздуха - влажноcть воздуха, измеренная на высоте 2 м над землей.
Te - Эффективная температура - температура, которую ощущает одетый по сезону человек в тени. Характеристика душности погоды. При расчете учитывается влияние влажности воздуха и скорости ветра на теплоощущения человека.
Tes - Эффективная температура на солнце - температура, которую ощущает человек, с поправкой на солнечный нагрев. Характеристика знойности погоды. Зависит от высоты солнца над горизонтом, облачности и скорости ветра. Ночью, в пасмурную погоду, а также при ветре 12 м/с и более поправка равна нулю.
P - Атмосферное давление - приведенное к уровню моря атмосферное давление.
Po - Атмосферное давление - измеренное на уровне метеостанции атмосферное давление.
Tmin - Минимальная температура - минимум температуры воздуха на высоте 2 м над землей.
Tmax - Максимальная температура - максимум температуры воздуха на высоте 2 м над землей.
R - Количество осадков - Количество выпавших осадков за период времени, мм. При наведении курсора мыши на число - период времени, за который выпало указанное количество осадков.
R24 - Количество осадков - Количество выпавших осадков за 24 часа, мм.
S - Снежный покров - Высота снежного покрова, см. При наведении курсора мыши на число - состояние снежного покрова и степень покрытия местности в баллах.